User: anonymous   Login
Location: Unspecified
(0.0000°N, 0.0000°E)
Time: 09:15:45
(UTC+00:00)
Language:

TURKSAT 3U - Orbit

View from above orbital plane
View from above orbital plane
View from above satellite
View from above satellite

Ground track
Ground track

The orbit data is extracted from the following two-line orbital elements,

1 39152U 13018C   17268.71800935  .00000314  00000-0  48004-4 0  9998
2 39152  97.9446 354.9507 0018253  78.3572 281.9687 14.80347703238444
Epoch (UTC): 25 September 2017 17:13:56
Eccentricity: 0.0018253
inclination: 97.9446°
perigee height: 615 km
apogee height: 641 km
right ascension of ascending node: 354.9507°
argument of perigee: 78.3572°
revolutions per day: 14.80347703
mean anomaly at epoch: 281.9687°
orbit number at epoch: 23844

The dashed part of the orbit path shows where the satellite is in the earth's shadow,  

DLR